Location: Molveno
(46.1500°N, 10.9667°E)
Time: 01:01:08
(UTC+00:00)

NOSS 0 Rocket - Pass Details

Date: 05 July 2020
Orbit: 934 x 955 km, 70.0° (Epoch: 11 August)

Event Time Altitude Azimuth Distance (km) Brightness Sun altitude
Exits shadow 22:07:30 14° 216° (SW) 2,350 5.7 -19.2°
Maximum altitude 22:12:49 73° 300° (WNW) 982 4.1 -19.5°
Drops below altitude 10° 22:19:00 10° 25° (NNE) 2,665 7.0 -19.8°
Sets 22:21:34 0° 28° (NNE) 3,616 7.7 -19.9°
